San Antonio, TX

8:52 PM CDT on April 26, 2018 (GMT -0500)
San Antonio International

Weather History for KSAT - August, 2012

Change the Weather History Date:

Tuesday, August 7, 2012

  Actual Average Record
Temperature  
Mean Temperature 88 °F 86 °F  
Max Temperature 99 °F 97 °F 104 °F (2013)
Min Temperature 77 °F 75 °F 68 °F (1975)
Degree Days  
Heating Degree Days 0 0  
Month to date heating degree days 0 0  
Since 1 June heating degree days 0 0  
Since 1 July heating degree days 0 0  
Cooling Degree Days 23 21  
Month to date cooling degree days 159 147  
Year to date cooling degree days 2254 1907  
Since 1 June cooling degree days 1398 1278  
Growing Degree Days 38 (Base 50)    
Moisture  
Dew Point 69 °F    
Average Humidity 56    
Maximum Humidity 79    
Minimum Humidity 33    
Precipitation  
Precipitation 0.00 in 0.05 in 3.31 in (2017)
Month to date precipitation T 0.34  
Year to date precipitation 26.64 19.19  
Snow  
Snow 0.00 in - - ()
Month to date snowfall 0.0  
Since 1 June snowfall 0.0  
Since 1 July snowfall 0.0  
Snow Depth 0.00 in    
Sea Level Pressure  
Sea Level Pressure 29.91 in    
Wind  
Wind Speed 6 mph (SE)    
Max Wind Speed 15 mph    
Max Gust Speed 18 mph    
Visibility 10 miles    
Events      
T = Trace of Precipitation, MM = Missing Value Source: NWS Daily Summary

Daily Weather History Graph

Daily Weather History Graph

Search for Another Location

Airport or City:

Astronomy

Aug. 07, 2012 Rise Set
Actual Time 6:57 AM CDT 8:21 PM CDT
Civil Twilight 6:32 AM CDT 8:46 PM CDT
Nautical Twilight 6:01 AM CDT 9:16 PM CDT
Astronomical Twilight 5:30 AM CDT 9:48 PM CDT
Moon 11:36 PM CDT (8/7) 12:13 PM CDT (8/7)
Length of Visible Light 14h 14m
Length of Day
13h 23m
Waning Gibbous, 69% of the Moon is Illuminated
Aug 7
Waning Gibbous
Aug 9
Last Quarter
Aug 17
New
Aug 24
First Quarter
Aug 31
Full

Hourly Weather History & Observations

Time (CDT) Temp. Heat Index Dew Point Humidity Pressure Visibility Wind Dir Wind Speed Gust Speed Precip Events Conditions
12:53 AM 84.0 °F 89.6 °F 72.0 °F 67% 29.95 in 10.0 mi South 8.1 mph - N/A   Scattered Clouds
1:53 AM 82.0 °F 86.3 °F 71.1 °F 69% 29.95 in 10.0 mi South 6.9 mph - N/A   Partly Cloudy
2:53 AM 81.0 °F 84.9 °F 71.1 °F 72% 29.94 in 10.0 mi South 5.8 mph - N/A   Clear
3:53 AM 81.0 °F 84.9 °F 71.1 °F 72% 29.93 in 10.0 mi SSW 3.5 mph - N/A   Clear
4:53 AM 80.1 °F 83.6 °F 71.1 °F 74% 29.93 in 10.0 mi Calm Calm - N/A   Clear
5:53 AM 78.1 °F - 71.1 °F 79% 29.94 in 10.0 mi Calm Calm - N/A   Clear
6:53 AM 78.1 °F - 71.1 °F 79% 29.94 in 10.0 mi Calm Calm - N/A   Scattered Clouds
7:53 AM 79.0 °F - 72.0 °F 79% 29.94 in 10.0 mi ESE 3.5 mph - N/A   Partly Cloudy
8:53 AM 82.9 °F 87.5 °F 71.1 °F 67% 29.95 in 10.0 mi Calm Calm - N/A   Partly Cloudy
9:53 AM 86.0 °F 91.5 °F 71.1 °F 61% 29.95 in 10.0 mi Calm Calm - N/A   Partly Cloudy
10:53 AM 89.6 °F 94.7 °F 69.8 °F 52% 30.01 in 10.0 mi Variable 4.6 mph - N/A   Scattered Clouds
11:53 AM 91.9 °F 95.4 °F 66.9 °F 44% 29.95 in 10.0 mi SSE 8.1 mph - N/A   Scattered Clouds
12:53 PM 93.0 °F 97.9 °F 69.1 °F 45% 29.94 in 10.0 mi Calm Calm - N/A   Partly Cloudy
1:53 PM 96.1 °F 101.0 °F 68.0 °F 40% 29.92 in 10.0 mi East 9.2 mph - N/A   Partly Cloudy
2:53 PM 97.0 °F 101.0 °F 66.9 °F 37% 29.89 in 10.0 mi ESE 9.2 mph - N/A   Partly Cloudy
3:53 PM 98.1 °F 101.2 °F 64.9 °F 34% 29.87 in 10.0 mi South 6.9 mph - N/A   Scattered Clouds
4:53 PM 98.1 °F 102.4 °F 66.9 °F 36% 29.86 in 10.0 mi ENE 9.2 mph - N/A   Scattered Clouds
5:53 PM 96.1 °F 98.8 °F 64.9 °F 36% 29.85 in 10.0 mi East 6.9 mph - N/A   Partly Cloudy
6:53 PM 96.1 °F 99.3 °F 66.0 °F 37% 29.85 in 10.0 mi East 11.5 mph - N/A   Partly Cloudy
7:53 PM 93.0 °F 95.0 °F 64.9 °F 39% 29.85 in 10.0 mi SE 12.7 mph - N/A   Partly Cloudy
8:53 PM 90.0 °F 92.8 °F 66.9 °F 46% 29.86 in 10.0 mi ESE 11.5 mph - N/A   Partly Cloudy
9:53 PM 88.0 °F 90.7 °F 66.9 °F 49% 29.88 in 10.0 mi ESE 12.7 mph - N/A   Partly Cloudy
10:53 PM 86.0 °F 89.4 °F 68.0 °F 55% 29.91 in 10.0 mi ESE 12.7 mph - N/A   Clear
11:53 PM 84.9 °F 88.8 °F 69.1 °F 59% 29.91 in 10.0 mi SE 9.2 mph - N/A   Clear